Theta_e
355 360 364 365 364 364 362 360 361 361 361 361 361 360 360 359 359 360 362 362 362 361 359 355 355 354 354 354 354 354 355 355 353 354 354 354 354 353 351 349 349 347 350
356 360 364 364 364 363 362 360 361 360 360 361 360 359 359 360 361 361 362 362 361 359 358 355 354 354 353 353 354 353 353 354 354 352 353 353 354 353 352 349 348 347 349
356 359 362 364 365 364 362 361 360 360 359 359 359 358 359 360 361 361 361 361 360 357 357 354 355 355 354 353 353 353 354 355 355 353 351 344 347 352 352 348 348 349 349
357 359 359 364 364 363 361 360 360 360 359 359 359 359 359 359 360 361 361 361 358 356 356 354 355 355 354 354 353 354 355 354 355 354 346 343 345 352 350 349 349 348 348
356 357 359 364 364 363 360 360 360 359 359 359 360 359 359 359 359 360 360 360 357 355 355 353 354 355 354 354 354 354 355 356 353 352 348 346 340 348 350 350 349 349 347
356 357 361 363 363 362 360 359 360 360 359 359 360 359 358 358 359 359 359 359 358 354 353 354 356 356 355 354 355 355 353 352 350 340 340 342 345 348 352 350 349 351 351
354 356 360 363 362 362 360 359 360 359 359 359 360 359 358 359 359 359 359 359 358 356 355 354 356 356 355 355 355 354 352 349 343 338 336 342 343 348 355 353 352 351 351
354 358 359 362 362 361 360 360 359 359 359 358 358 359 359 359 359 359 359 358 358 357 356 356 356 355 354 354 354 353 352 350 344 337 334 337 344 348 353 356 356 355 352
356 358 359 358 360 361 360 359 359 358 358 358 357 358 358 359 359 359 358 357 356 356 356 356 355 354 353 352 352 352 352 351 341 338 336 333 344 351 353 357 358 356 354
353 356 357 357 357 356 356 359 359 358 358 357 357 357 357 358 358 358 355 356 355 355 355 355 355 354 353 352 351 351 351 350 340 338 337 334 344 352 355 358 357 357 356
350 353 355 355 354 355 355 356 359 358 358 357 357 357 354 350 352 353 354 354 355 354 353 354 354 354 353 353 353 352 351 341 339 338 335 340 345 347 356 358 359 357 356
347 350 353 354 354 353 356 355 353 354 353 352 352 352 349 347 348 352 353 355 355 355 354 353 353 353 352 344 340 343 339 339 338 336 335 343 345 346 353 357 359 358 356
347 350 352 353 352 352 353 352 354 353 351 351 352 351 348 347 347 349 346 347 346 350 346 347 345 344 342 339 337 333 330 329 332 334 335 342 345 347 352 354 358 358 356
345 347 349 348 346 349 350 350 352 350 351 349 351 350 346 344 342 343 343 342 342 342 341 341 340 340 339 339 337 335 332 331 331 332 331 343 346 349 354 357 359 358 356
340 342 345 346 346 349 348 349 349 349 350 350 349 350 348 344 341 341 341 339 340 341 340 339 338 337 337 337 337 336 336 336 336 338 338 346 349 352 355 357 359 358 356
338 340 343 343 346 347 345 346 347 349 349 348 348 349 349 344 340 339 338 340 338 339 337 335 336 337 339 338 336 336 336 337 336 339 338 336 343 350 352 355 356 356 357
337 340 341 341 343 343 342 343 343 345 345 344 344 346 346 340 339 339 336 338 335 335 334 334 334 334 334 336 334 333 331 334 337 338 335 335 339 345 349 353 355 356 356
337 338 339 343 341 337 336 338 339 340 342 341 343 345 344 343 342 336 334 337 336 335 335 335 334 331 332 333 332 330 330 331 333 337 339 337 341 343 342 346 350 352 354
338 337 336 337 335 334 331 335 337 336 338 340 342 343 342 342 340 336 335 335 337 335 334 335 334 333 329 331 331 329 329 329 331 336 339 337 331 330 329 337 341 345 344
338 339 336 334 333 331 330 336 338 333 333 337 338 342 342 341 341 338 336 336 335 333 333 333 331 331 331 330 332 331 329 328 328 329 326 324 318 320 323 322 324 322 334
339 337 334 330 330 330 327 330 337 332 331 332 334 337 338 342 342 340 337 336 334 332 333 332 331 328 328 329 327 326 328 330 326 320 318 316 317 319 319 319 320 318 321
335 335 332 330 329 330 332 328 330 327 328 331 332 334 336 340 339 337 337 338 334 332 331 331 329 328 326 331 324 314 309 310 313 315 316 317 317 318 319 320 318 320 320
333 333 332 331 329 330 330 328 327 327 327 330 328 330 333 334 338 331 332 330 328 329 330 328 328 329 323 323 324 315 308 307 308 317 317 317 316 316 317 318 319 320 319
331 333 332 330 328 330 329 329 327 323 324 328 328 328 330 331 333 331 330 330 329 328 326 326 328 327 322 319 321 321 317 314 313 312 314 314 317 316 316 317 318 319 320
331 329 327 328 328 329 330 330 331 328 330 331 332 330 328 330 333 337 335 331 325 325 324 324 321 320 320 320 319 318 317 316 315 312 312 310 315 318 318 319 319 318 319
330 327 326 327 326 329 330 332 332 330 327 327 323 323 322 322 323 324 324 324 323 322 321 319 317 316 315 315 314 314 314 312 311 311 309 309 310 312 313 316 315 316 317
Wind_Speed
8 12 16 15 15 16 18 19 19 20 19 19 18 18 18 18 18 18 17 16 15 14 14 12 11 10 11 11 12 11 11 11 12 12 11 10 9 10 11 11 10 6 11
16 15 19 18 16 17 17 18 18 19 19 19 19 18 18 17 17 16 15 15 13 14 13 12 11 10 11 12 12 12 11 10 10 11 11 9 7 7 11 11 10 7 9
15 15 16 20 18 18 18 17 17 17 18 18 17 16 16 16 16 14 14 14 13 14 13 12 12 11 11 11 12 12 12 10 9 10 9 4 3 6 12 11 11 10 9
14 11 11 19 19 18 19 18 18 18 18 17 17 16 16 15 14 14 13 13 13 13 13 13 13 12 12 11 11 10 9 9 9 9 5 4 5 8 9 11 12 11 10
13 12 11 18 19 18 18 16 16 16 17 17 17 16 14 14 13 12 11 11 12 13 12 11 10 10 10 10 8 7 5 4 3 2 3 4 4 7 10 11 11 11 11
11 9 13 14 16 17 17 16 15 15 14 15 14 14 13 12 11 11 11 10 10 10 10 10 8 7 7 7 6 5 4 2 1 2 4 6 6 7 12 12 11 11 10
10 8 9 12 14 14 15 15 15 15 14 14 13 13 13 10 8 8 8 7 7 7 7 6 4 4 4 3 3 3 2 2 2 3 4 2 6 9 12 12 12 11 11
11 10 9 12 13 13 13 12 12 13 14 14 13 13 12 10 9 6 5 5 4 4 4 4 3 3 4 3 3 5 5 5 4 5 5 4 3 7 12 12 11 11 13
12 12 10 8 11 13 11 10 9 10 11 12 12 11 11 11 9 8 6 4 3 2 2 2 3 4 6 6 6 7 8 9 5 3 4 3 6 10 12 12 12 11 12
12 14 12 10 9 9 9 13 11 9 9 9 9 10 11 9 8 7 7 5 4 3 3 3 4 6 7 8 9 9 10 10 4 3 4 4 9 8 14 14 13 14 13
10 12 12 11 9 9 9 11 14 14 10 9 8 8 7 4 4 5 5 5 4 3 4 5 6 7 8 9 10 10 13 4 6 4 2 9 10 11 13 14 15 14 14
14 12 11 12 8 9 8 7 7 9 8 8 7 6 4 5 3 3 3 4 4 5 5 6 7 8 7 3 4 9 3 5 5 5 4 12 12 14 14 17 17 15 16
13 10 10 11 10 8 8 5 4 3 3 5 9 7 6 5 4 3 3 2 1 4 3 4 4 3 4 3 4 3 5 5 4 5 7 12 14 16 16 18 17 17 17
12 13 11 11 10 9 7 5 6 5 6 5 7 9 6 4 4 4 3 4 4 2 2 3 3 5 6 5 5 6 6 5 4 4 6 13 14 15 13 14 16 17 15
12 13 14 13 12 12 11 8 8 8 8 7 6 8 8 7 5 3 3 1 3 3 2 3 2 2 3 4 4 5 9 9 6 4 4 11 11 11 11 13 16 15 16
10 12 13 12 11 13 11 12 10 10 8 7 7 8 7 4 4 4 4 5 4 5 5 4 6 5 5 5 4 5 7 9 12 14 8 6 11 9 12 15 15 15 16
13 13 14 13 10 12 11 8 3 6 5 5 3 6 8 8 7 6 4 5 5 4 6 5 5 3 4 4 2 4 6 7 10 13 11 8 8 10 11 16 13 12 11
15 15 11 10 9 5 5 4 3 2 3 5 4 4 9 6 10 8 6 5 5 4 3 1 1 3 3 4 2 1 1 4 7 14 13 9 6 4 7 10 9 10 11
17 15 13 9 7 6 6 4 4 3 4 4 6 6 10 11 12 10 7 6 5 5 5 3 1 3 0 1 1 4 4 4 8 13 13 10 6 5 4 7 10 10 10
14 14 9 6 7 6 4 4 3 4 3 3 3 6 9 8 10 8 6 8 9 6 3 5 4 4 2 5 5 6 6 6 9 9 9 7 6 6 5 6 5 6 13
14 14 12 10 9 8 4 4 3 3 2 1 2 5 5 7 10 4 4 8 9 7 6 3 3 4 4 3 1 3 7 11 12 10 6 5 6 6 6 6 4 4 5
18 17 12 12 9 6 6 3 3 3 3 3 3 4 4 2 5 3 5 4 3 2 3 3 3 4 3 5 4 1 4 4 3 5 4 5 7 5 7 8 7 9 7
16 16 16 16 12 9 6 4 3 3 2 2 2 2 2 4 4 5 5 5 4 3 3 3 4 6 3 3 6 3 1 4 2 3 6 5 6 4 5 6 7 8 8
16 14 11 10 11 10 7 6 4 4 3 3 3 3 3 4 3 4 4 5 4 3 4 4 4 4 3 3 1 3 4 2 2 7 2 4 5 5 6 5 6 8 8
12 11 9 9 10 9 9 6 5 5 4 3 3 6 5 5 5 5 4 4 4 3 3 3 2 3 3 3 3 1 2 2 4 3 9 6 6 4 4 5 6 6 9
8 7 9 9 6 6 6 5 7 6 4 4 3 4 3 3 3 5 6 5 5 4 3 3 2 2 3 3 3 2 3 3 3 4 5 9 13 7 4 5 6 7 6
Wind_Direction
185 161 159 151 138 129 124 123 123 123 121 119 116 115 116 121 126 129 131 130 128 130 134 132 130 129 122 116 115 112 114 115 115 118 123 129 132 138 137 135 133 128 127
149 159 157 152 144 134 129 130 128 126 124 122 122 124 126 127 128 129 130 128 128 132 136 137 137 136 130 126 124 123 122 118 121 130 137 142 145 168 152 139 137 143 138
151 158 158 151 148 141 137 136 131 126 123 123 124 124 124 125 128 133 133 133 133 137 141 144 147 143 136 135 132 132 130 131 134 141 143 152 164 149 155 145 151 149 154
140 146 157 152 148 146 144 141 138 135 132 130 129 129 132 132 133 136 137 136 136 141 148 156 157 151 148 144 141 136 134 142 153 161 148 172 188 186 171 163 163 160 164
144 147 162 159 149 144 141 139 140 136 135 135 137 137 136 137 137 134 136 137 142 149 156 164 166 158 155 151 146 140 143 147 163 208 209 211 203 202 194 183 175 169 173
132 138 156 158 142 137 141 141 138 134 135 137 138 137 139 139 139 141 143 146 151 157 164 171 177 169 165 161 155 155 158 172 283 294 278 242 204 212 209 198 189 184 187
123 121 139 141 128 131 142 145 142 141 142 142 143 142 142 137 135 140 143 141 145 155 168 181 196 194 188 179 186 191 219 288 307 311 321 215 188 208 219 213 198 192 194
113 113 121 130 128 134 142 145 145 146 146 147 149 147 143 142 138 134 125 130 144 160 179 197 216 240 244 265 275 293 298 303 333 340 339 350 241 213 225 237 223 207 204
114 123 125 130 137 126 121 130 139 146 149 148 147 147 147 149 150 151 153 152 159 174 216 223 241 267 279 281 283 294 301 306 320 317 310 313 294 246 229 242 241 227 221
131 137 141 143 141 138 134 131 138 147 147 143 145 148 147 153 155 162 177 185 183 200 234 264 274 274 276 281 291 295 293 297 302 262 271 282 295 260 227 235 235 235 232
149 154 154 153 150 140 144 157 151 152 136 134 137 144 146 140 159 186 190 198 192 207 231 241 250 262 276 285 291 291 295 314 309 301 274 279 276 271 245 243 238 236 237
158 161 157 148 138 138 145 142 150 164 159 153 149 155 144 140 141 172 214 221 217 224 244 255 256 262 273 286 305 310 315 306 291 287 288 288 282 272 252 246 241 237 238
142 156 159 146 138 145 145 139 151 151 166 164 161 164 162 152 172 176 179 206 206 250 228 241 264 269 262 258 274 300 288 283 269 276 277 278 271 267 262 254 240 235 239
149 147 148 146 141 146 139 143 167 165 176 183 189 164 161 160 176 185 184 198 210 216 288 353 345 340 328 321 298 286 273 275 275 272 265 270 268 268 267 256 238 235 240
150 157 165 167 159 156 152 160 173 184 189 186 173 181 169 173 178 163 186 136 64 94 89 57 30 327 314 317 310 311 326 321 313 295 296 278 283 297 277 254 246 246 244
161 170 166 169 166 165 168 182 188 182 182 182 187 195 168 166 112 140 123 125 93 100 104 101 88 86 91 84 54 32 6 348 326 318 302 294 282 282 277 269 259 255 258
175 165 172 175 174 179 175 172 194 198 199 175 199 179 148 138 147 126 121 123 121 125 128 130 117 147 137 121 48 24 11 5 337 309 296 290 299 306 292 267 263 281 293
163 175 176 180 186 185 119 121 105 66 98 98 106 119 116 111 125 117 122 136 145 135 99 49 130 114 322 13 11 66 286 35 340 298 288 273 271 282 279 283 308 313 299
173 174 179 178 179 167 107 100 77 98 114 138 125 128 131 141 131 139 152 163 181 175 184 213 179 310 250 235 256 204 243 171 239 260 265 265 266 275 287 315 301 285 281
174 177 180 177 168 142 113 108 94 73 71 71 109 143 162 149 153 162 168 194 185 185 205 170 180 195 215 212 209 210 236 234 244 264 261 267 278 288 290 284 281 282 289
169 177 183 175 182 157 140 130 148 162 109 160 174 192 185 187 197 175 195 190 186 183 202 128 132 168 239 236 348 260 237 233 244 250 258 265 292 296 302 294 283 277 288
175 183 180 193 180 177 178 145 127 143 186 170 183 222 222 227 136 158 198 173 245 99 153 198 164 136 214 193 206 136 280 314 262 241 257 267 274 290 305 306 317 308 303
178 185 192 192 180 181 172 111 87 80 57 107 207 211 212 190 164 153 150 142 172 164 190 196 184 189 226 217 203 179 303 247 335 275 272 263 277 301 295 302 295 296 305
191 191 192 187 185 183 159 160 143 156 165 193 177 174 173 208 211 164 153 156 184 187 205 205 181 194 184 226 275 236 240 189 298 315 312 302 277 298 294 300 302 306 311
178 180 170 171 188 184 177 170 156 167 173 165 153 159 171 195 196 174 167 162 152 142 177 166 135 151 182 161 194 234 331 276 236 237 287 294 299 266 281 293 303 296 306
143 136 142 161 171 157 153 175 196 190 169 151 120 129 129 111 109 100 116 124 114 116 112 106 133 167 195 205 183 194 206 220 229 244 267 288 292 283 267 269 273 280 282